Multibeam Report for RR1016


Ship Name: Roger Revelle
Chief Scientist: Lien, Ren-Chieh
University of Washington
Source Organization: Rolling Deck to Repository
Start Date: 2010-11-06
End Date: 2010-11-24


View ISO Metadata

Visit the full NCEI Bathymetry Viewer


Multibeam Bathymetry

Cruise Details

Project: Process Study of Oceanic Responses to Typhoons using Arrays of EM-APEX Floats and Moorings
Instrument: Simrad EM122

Data Quality

Number of Files: 208
Number of Records: 178951
BATHYMETRY DATA Quantity Percentage
Number of Beams 77306832 100%
Number of Good Beams 70771712 91.55%
Number of Zero Beams 0 0%
Number of Flagged Beams 6535120 8.45%
AMPLITUDE DATA Quantity Percentage
Number of Beams 77306832 100%
Number of Good Beams 70771712 91.55%
Number of Zero Beams 0 0%
Number of Flagged Beams 6535120 8.45%
SIDESCAN DATA Quantity Percentage
Number of Pixels 183245824 100%
Number of Good Pixels 146352168 79.87%
Number of Zero Pixels 0 0%
Number of Flagged Pixels 36893656 20.13%

Navigation Totals

Total Time: 363.0331 hours
Total Track Length: 4426.5556 km
Average Speed: 12.193 km/hr (6.5837 knots)

Cruise Bounds

Northern Extent: 22.252499
Southern Extent: 19.814798
Western Extent: 119.47598
Eastern Extent: 127.98551

Limits

Minimum Sonar Depth 2.065 Maximum Sonar Depth 8.5888
Minimum Altitude 0 Maximum Altitude 8421.3164
Minimum Depth 3.5654 Maximum Depth 9263.3047
Minimum Amplitude 0 Maximum Amplitude 7.6
Minimum Sidescan 0 Maximum Sidescan 15.33

File Information

Full Resolution Bathymetry as collected (raw): 205

Files File Size Description
0000_20101106_114434_RV_Revelle.all.mb58.gz 54.69MB Kongsberg multibeam vendor format
0001_20101106_134425_RV_Revelle.all.mb58.gz 39.08MB Kongsberg multibeam vendor format
0002_20101106_154422_RV_Revelle.all.mb58.gz 38.99MB Kongsberg multibeam vendor format
0003_20101106_174427_RV_Revelle.all.mb58.gz 31.06MB Kongsberg multibeam vendor format
0004_20101106_191753_RV_Revelle.all.mb58.gz 5.41MB Kongsberg multibeam vendor format
0005_20101106_195916_RV_Revelle.all.mb58.gz 33.52MB Kongsberg multibeam vendor format
0006_20101106_215911_RV_Revelle.all.mb58.gz 18.16MB Kongsberg multibeam vendor format
0007_20101106_233314_RV_Revelle.all.mb58.gz 1.50MB Kongsberg multibeam vendor format
0008_20101107_045242_RV_Revelle.all.mb58.gz 33.60MB Kongsberg multibeam vendor format
0009_20101107_065236_RV_Revelle.all.mb58.gz 36.33MB Kongsberg multibeam vendor format
0010_20101107_085234_RV_Revelle.all.mb58.gz 45.00MB Kongsberg multibeam vendor format
0011_20101107_105230_RV_Revelle.all.mb58.gz 47.58MB Kongsberg multibeam vendor format
0012_20101107_125224_RV_Revelle.all.mb58.gz 36.48MB Kongsberg multibeam vendor format
0013_20101107_145233_RV_Revelle.all.mb58.gz 73.22MB Kongsberg multibeam vendor format
0014_20101107_165225_RV_Revelle.all.mb58.gz 50.40MB Kongsberg multibeam vendor format
0015_20101107_185228_RV_Revelle.all.mb58.gz 27.96MB Kongsberg multibeam vendor format
0016_20101107_205230_RV_Revelle.all.mb58.gz 27.59MB Kongsberg multibeam vendor format
0017_20101107_225236_RV_Revelle.all.mb58.gz 19.24MB Kongsberg multibeam vendor format
0018_20101108_005235_RV_Revelle.all.mb58.gz 18.63MB Kongsberg multibeam vendor format
0019_20101108_025232_RV_Revelle.all.mb58.gz 6.04MB Kongsberg multibeam vendor format
0020_20101108_034016_RV_Revelle.all.mb58.gz 2.27MB Kongsberg multibeam vendor format
0021_20101108_085450_RV_Revelle.all.mb58.gz 19.34MB Kongsberg multibeam vendor format
0022_20101108_105446_RV_Revelle.all.mb58.gz 19.50MB Kongsberg multibeam vendor format
0023_20101108_125444_RV_Revelle.all.mb58.gz 13.95MB Kongsberg multibeam vendor format
0024_20101108_145439_RV_Revelle.all.mb58.gz 10.46MB Kongsberg multibeam vendor format
0025_20101108_165439_RV_Revelle.all.mb58.gz 16.35MB Kongsberg multibeam vendor format
0026_20101108_185441_RV_Revelle.all.mb58.gz 19.12MB Kongsberg multibeam vendor format
0027_20101108_205436_RV_Revelle.all.mb58.gz 18.78MB Kongsberg multibeam vendor format
0028_20101108_225433_RV_Revelle.all.mb58.gz 19.58MB Kongsberg multibeam vendor format
0029_20101109_005435_RV_Revelle.all.mb58.gz 19.42MB Kongsberg multibeam vendor format
0030_20101109_025436_RV_Revelle.all.mb58.gz 14.14MB Kongsberg multibeam vendor format
0031_20101109_045440_RV_Revelle.all.mb58.gz 10.30MB Kongsberg multibeam vendor format
0032_20101109_071222_RV_Revelle.all.mb58.gz 12.4KB Kongsberg multibeam vendor format
0033_20101109_071340_RV_Revelle.all.mb58.gz 19.65MB Kongsberg multibeam vendor format
0034_20101109_091331_RV_Revelle.all.mb58.gz 19.91MB Kongsberg multibeam vendor format
0035_20101109_111336_RV_Revelle.all.mb58.gz 19.53MB Kongsberg multibeam vendor format
0036_20101109_131337_RV_Revelle.all.mb58.gz 19.82MB Kongsberg multibeam vendor format
0037_20101109_151330_RV_Revelle.all.mb58.gz 19.66MB Kongsberg multibeam vendor format
0038_20101109_171332_RV_Revelle.all.mb58.gz 18.69MB Kongsberg multibeam vendor format
0039_20101109_191327_RV_Revelle.all.mb58.gz 19.05MB Kongsberg multibeam vendor format
0040_20101109_211322_RV_Revelle.all.mb58.gz 8.81MB Kongsberg multibeam vendor format
0041_20101110_023903_RV_Revelle.all.mb58.gz 78.4KB Kongsberg multibeam vendor format
0042_20101110_111301_RV_Revelle.all.mb58.gz 4.96MB Kongsberg multibeam vendor format
0043_20101110_125610_RV_Revelle.all.mb58.gz 105.7KB Kongsberg multibeam vendor format
0044_20101110_130011_RV_Revelle.all.mb58.gz 0.75MB Kongsberg multibeam vendor format
0045_20101110_131206_RV_Revelle.all.mb58.gz 6.40MB Kongsberg multibeam vendor format
0046_20101110_151202_RV_Revelle.all.mb58.gz 2.59MB Kongsberg multibeam vendor format
0047_20101110_155443_RV_Revelle.all.mb58.gz 8.19MB Kongsberg multibeam vendor format
0048_20101110_175500_RV_Revelle.all.mb58.gz 20.33MB Kongsberg multibeam vendor format
0049_20101110_195453_RV_Revelle.all.mb58.gz 18.17MB Kongsberg multibeam vendor format
0050_20101110_222818_RV_Revelle.all.mb58.gz 20.84MB Kongsberg multibeam vendor format
0051_20101111_002811_RV_Revelle.all.mb58.gz 20.43MB Kongsberg multibeam vendor format
0052_20101111_022801_RV_Revelle.all.mb58.gz 16.72MB Kongsberg multibeam vendor format
0053_20101111_042812_RV_Revelle.all.mb58.gz 0.59MB Kongsberg multibeam vendor format
0054_20101111_044332_RV_Revelle.all.mb58.gz 19.61MB Kongsberg multibeam vendor format
0055_20101111_064341_RV_Revelle.all.mb58.gz 10.48MB Kongsberg multibeam vendor format
0056_20101111_114514_RV_Revelle.all.mb58.gz 126.9KB Kongsberg multibeam vendor format
0057_20101111_114830_RV_Revelle.all.mb58.gz 18.75MB Kongsberg multibeam vendor format
0058_20101111_134836_RV_Revelle.all.mb58.gz 18.59MB Kongsberg multibeam vendor format
0059_20101111_154831_RV_Revelle.all.mb58.gz 16.13MB Kongsberg multibeam vendor format
0060_20101111_174830_RV_Revelle.all.mb58.gz 13.90MB Kongsberg multibeam vendor format
0061_20101111_194829_RV_Revelle.all.mb58.gz 20.14MB Kongsberg multibeam vendor format
0062_20101111_214838_RV_Revelle.all.mb58.gz 19.63MB Kongsberg multibeam vendor format
0063_20101111_234833_RV_Revelle.all.mb58.gz 19.36MB Kongsberg multibeam vendor format
0064_20101112_014826_RV_Revelle.all.mb58.gz 19.04MB Kongsberg multibeam vendor format
0065_20101112_034841_RV_Revelle.all.mb58.gz 19.16MB Kongsberg multibeam vendor format
0066_20101112_054832_RV_Revelle.all.mb58.gz 18.28MB Kongsberg multibeam vendor format
0067_20101112_074840_RV_Revelle.all.mb58.gz 19.55MB Kongsberg multibeam vendor format
0068_20101112_094833_RV_Revelle.all.mb58.gz 19.27MB Kongsberg multibeam vendor format
0069_20101112_114842_RV_Revelle.all.mb58.gz 19.60MB Kongsberg multibeam vendor format
0070_20101112_134835_RV_Revelle.all.mb58.gz 19.27MB Kongsberg multibeam vendor format
0071_20101112_154828_RV_Revelle.all.mb58.gz 19.20MB Kongsberg multibeam vendor format
0072_20101112_174834_RV_Revelle.all.mb58.gz 19.14MB Kongsberg multibeam vendor format
0073_20101112_194841_RV_Revelle.all.mb58.gz 19.22MB Kongsberg multibeam vendor format
0074_20101112_214836_RV_Revelle.all.mb58.gz 19.27MB Kongsberg multibeam vendor format
0075_20101112_234827_RV_Revelle.all.mb58.gz 19.46MB Kongsberg multibeam vendor format
0076_20101113_014833_RV_Revelle.all.mb58.gz 19.29MB Kongsberg multibeam vendor format
0077_20101113_034843_RV_Revelle.all.mb58.gz 19.39MB Kongsberg multibeam vendor format
0078_20101113_054831_RV_Revelle.all.mb58.gz 19.71MB Kongsberg multibeam vendor format
0079_20101113_074828_RV_Revelle.all.mb58.gz 19.25MB Kongsberg multibeam vendor format
0080_20101113_094829_RV_Revelle.all.mb58.gz 18.91MB Kongsberg multibeam vendor format
0081_20101113_114835_RV_Revelle.all.mb58.gz 18.95MB Kongsberg multibeam vendor format
0082_20101113_134841_RV_Revelle.all.mb58.gz 19.02MB Kongsberg multibeam vendor format
0083_20101113_154843_RV_Revelle.all.mb58.gz 18.92MB Kongsberg multibeam vendor format
0084_20101113_174840_RV_Revelle.all.mb58.gz 19.06MB Kongsberg multibeam vendor format
0085_20101113_194828_RV_Revelle.all.mb58.gz 18.84MB Kongsberg multibeam vendor format
0086_20101113_214840_RV_Revelle.all.mb58.gz 18.86MB Kongsberg multibeam vendor format
0087_20101113_234834_RV_Revelle.all.mb58.gz 18.69MB Kongsberg multibeam vendor format
0088_20101114_014842_RV_Revelle.all.mb58.gz 19.30MB Kongsberg multibeam vendor format
0089_20101114_034831_RV_Revelle.all.mb58.gz 19.13MB Kongsberg multibeam vendor format
0090_20101114_054830_RV_Revelle.all.mb58.gz 13.72MB Kongsberg multibeam vendor format
0091_20101114_072223_RV_Revelle.all.mb58.gz 19.13MB Kongsberg multibeam vendor format
0092_20101114_092227_RV_Revelle.all.mb58.gz 18.49MB Kongsberg multibeam vendor format
0093_20101114_112218_RV_Revelle.all.mb58.gz 18.92MB Kongsberg multibeam vendor format
0094_20101114_132223_RV_Revelle.all.mb58.gz 19.35MB Kongsberg multibeam vendor format
0095_20101114_152225_RV_Revelle.all.mb58.gz 19.14MB Kongsberg multibeam vendor format
0096_20101114_172227_RV_Revelle.all.mb58.gz 19.14MB Kongsberg multibeam vendor format
0097_20101114_192214_RV_Revelle.all.mb58.gz 23.80MB Kongsberg multibeam vendor format
0098_20101114_212227_RV_Revelle.all.mb58.gz 14.06MB Kongsberg multibeam vendor format
0099_20101114_231535_RV_Revelle.all.mb58.gz 4.37MB Kongsberg multibeam vendor format
0100_20101115_002256_RV_Revelle.all.mb58.gz 19.27MB Kongsberg multibeam vendor format
0101_20101115_022254_RV_Revelle.all.mb58.gz 18.97MB Kongsberg multibeam vendor format
0102_20101115_042245_RV_Revelle.all.mb58.gz 15.81MB Kongsberg multibeam vendor format
0103_20101115_094619_RV_Revelle.all.mb58.gz 18.07MB Kongsberg multibeam vendor format
0104_20101115_114613_RV_Revelle.all.mb58.gz 18.11MB Kongsberg multibeam vendor format
0105_20101115_134603_RV_Revelle.all.mb58.gz 18.75MB Kongsberg multibeam vendor format
0106_20101115_154603_RV_Revelle.all.mb58.gz 19.11MB Kongsberg multibeam vendor format
0107_20101115_174604_RV_Revelle.all.mb58.gz 19.65MB Kongsberg multibeam vendor format
0108_20101115_194611_RV_Revelle.all.mb58.gz 19.35MB Kongsberg multibeam vendor format
0109_20101115_214610_RV_Revelle.all.mb58.gz 18.70MB Kongsberg multibeam vendor format
0110_20101115_234602_RV_Revelle.all.mb58.gz 19.01MB Kongsberg multibeam vendor format
0111_20101116_014607_RV_Revelle.all.mb58.gz 18.98MB Kongsberg multibeam vendor format
0112_20101116_034612_RV_Revelle.all.mb58.gz 13.34MB Kongsberg multibeam vendor format
0113_20101116_051607_RV_Revelle.all.mb58.gz 19.01MB Kongsberg multibeam vendor format
0114_20101116_071556_RV_Revelle.all.mb58.gz 4.48MB Kongsberg multibeam vendor format
0115_20101116_151054_RV_Revelle.all.mb58.gz 19.56MB Kongsberg multibeam vendor format
0116_20101116_171048_RV_Revelle.all.mb58.gz 19.14MB Kongsberg multibeam vendor format
0117_20101116_191041_RV_Revelle.all.mb58.gz 19.54MB Kongsberg multibeam vendor format
0118_20101116_211046_RV_Revelle.all.mb58.gz 19.25MB Kongsberg multibeam vendor format
0119_20101116_231044_RV_Revelle.all.mb58.gz 19.52MB Kongsberg multibeam vendor format
0120_20101117_011047_RV_Revelle.all.mb58.gz 19.71MB Kongsberg multibeam vendor format
0121_20101117_031045_RV_Revelle.all.mb58.gz 19.44MB Kongsberg multibeam vendor format
0122_20101117_051050_RV_Revelle.all.mb58.gz 19.64MB Kongsberg multibeam vendor format
0123_20101117_071049_RV_Revelle.all.mb58.gz 19.72MB Kongsberg multibeam vendor format
0124_20101117_091040_RV_Revelle.all.mb58.gz 19.73MB Kongsberg multibeam vendor format
0125_20101117_111043_RV_Revelle.all.mb58.gz 19.27MB Kongsberg multibeam vendor format
0126_20101117_131049_RV_Revelle.all.mb58.gz 20.02MB Kongsberg multibeam vendor format
0127_20101117_151035_RV_Revelle.all.mb58.gz 19.56MB Kongsberg multibeam vendor format
0128_20101117_171037_RV_Revelle.all.mb58.gz 19.49MB Kongsberg multibeam vendor format
0129_20101117_191036_RV_Revelle.all.mb58.gz 19.40MB Kongsberg multibeam vendor format
0130_20101117_211048_RV_Revelle.all.mb58.gz 19.87MB Kongsberg multibeam vendor format
0131_20101117_231051_RV_Revelle.all.mb58.gz 19.74MB Kongsberg multibeam vendor format
0132_20101118_011036_RV_Revelle.all.mb58.gz 19.48MB Kongsberg multibeam vendor format
0133_20101118_031035_RV_Revelle.all.mb58.gz 19.36MB Kongsberg multibeam vendor format
0134_20101118_051049_RV_Revelle.all.mb58.gz 19.11MB Kongsberg multibeam vendor format
0135_20101118_071036_RV_Revelle.all.mb58.gz 19.02MB Kongsberg multibeam vendor format
0136_20101118_091044_RV_Revelle.all.mb58.gz 18.90MB Kongsberg multibeam vendor format
0137_20101118_111043_RV_Revelle.all.mb58.gz 19.29MB Kongsberg multibeam vendor format
0138_20101118_131042_RV_Revelle.all.mb58.gz 18.92MB Kongsberg multibeam vendor format
0139_20101118_151047_RV_Revelle.all.mb58.gz 18.87MB Kongsberg multibeam vendor format
0140_20101118_171036_RV_Revelle.all.mb58.gz 19.04MB Kongsberg multibeam vendor format
0141_20101118_191039_RV_Revelle.all.mb58.gz 19.00MB Kongsberg multibeam vendor format
0142_20101118_211043_RV_Revelle.all.mb58.gz 22.20MB Kongsberg multibeam vendor format
0143_20101118_231035_RV_Revelle.all.mb58.gz 23.83MB Kongsberg multibeam vendor format
0144_20101119_011041_RV_Revelle.all.mb58.gz 22.79MB Kongsberg multibeam vendor format
0145_20101119_031045_RV_Revelle.all.mb58.gz 37.88MB Kongsberg multibeam vendor format
0146_20101119_051045_RV_Revelle.all.mb58.gz 41.06MB Kongsberg multibeam vendor format
0147_20101119_071041_RV_Revelle.all.mb58.gz 40.98MB Kongsberg multibeam vendor format
0148_20101119_091042_RV_Revelle.all.mb58.gz 41.16MB Kongsberg multibeam vendor format
0149_20101119_111047_RV_Revelle.all.mb58.gz 40.59MB Kongsberg multibeam vendor format
0150_20101119_131039_RV_Revelle.all.mb58.gz 39.18MB Kongsberg multibeam vendor format
0151_20101119_151045_RV_Revelle.all.mb58.gz 39.39MB Kongsberg multibeam vendor format
0152_20101119_171038_RV_Revelle.all.mb58.gz 39.81MB Kongsberg multibeam vendor format
0153_20101119_191040_RV_Revelle.all.mb58.gz 40.75MB Kongsberg multibeam vendor format
0154_20101119_211045_RV_Revelle.all.mb58.gz 40.34MB Kongsberg multibeam vendor format
0155_20101119_231043_RV_Revelle.all.mb58.gz 38.23MB Kongsberg multibeam vendor format
0156_20101120_011041_RV_Revelle.all.mb58.gz 38.62MB Kongsberg multibeam vendor format
0157_20101120_031045_RV_Revelle.all.mb58.gz 40.80MB Kongsberg multibeam vendor format
0158_20101120_051107_RV_Revelle.all.mb58.gz 40.80MB Kongsberg multibeam vendor format
0159_20101120_071132_RV_Revelle.all.mb58.gz 39.82MB Kongsberg multibeam vendor format
0160_20101120_091133_RV_Revelle.all.mb58.gz 40.41MB Kongsberg multibeam vendor format
0161_20101120_111132_RV_Revelle.all.mb58.gz 36.93MB Kongsberg multibeam vendor format
0162_20101120_131131_RV_Revelle.all.mb58.gz 31.32MB Kongsberg multibeam vendor format
0163_20101120_151142_RV_Revelle.all.mb58.gz 10.91MB Kongsberg multibeam vendor format
0164_20101120_155715_RV_Revelle.all.mb58.gz 13.49MB Kongsberg multibeam vendor format
0166_20101120_165549_RV_Revelle.all.mb58.gz 4.73MB Kongsberg multibeam vendor format
0167_20101120_173353_RV_Revelle.all.mb58.gz 0.74MB Kongsberg multibeam vendor format
0168_20101120_175353_RV_Revelle.all.mb58.gz 45.7KB Kongsberg multibeam vendor format
0169_20101120_175602_RV_Revelle.all.mb58.gz 39.96MB Kongsberg multibeam vendor format
0170_20101120_195610_RV_Revelle.all.mb58.gz 40.59MB Kongsberg multibeam vendor format
0171_20101120_215614_RV_Revelle.all.mb58.gz 40.54MB Kongsberg multibeam vendor format
0172_20101120_235620_RV_Revelle.all.mb58.gz 40.62MB Kongsberg multibeam vendor format
0173_20101121_015619_RV_Revelle.all.mb58.gz 40.63MB Kongsberg multibeam vendor format
0174_20101121_035617_RV_Revelle.all.mb58.gz 40.78MB Kongsberg multibeam vendor format
0175_20101121_055626_RV_Revelle.all.mb58.gz 41.00MB Kongsberg multibeam vendor format
0176_20101121_075617_RV_Revelle.all.mb58.gz 40.77MB Kongsberg multibeam vendor format
0177_20101121_095629_RV_Revelle.all.mb58.gz 40.46MB Kongsberg multibeam vendor format
0178_20101121_115621_RV_Revelle.all.mb58.gz 40.32MB Kongsberg multibeam vendor format
0179_20101121_135627_RV_Revelle.all.mb58.gz 38.58MB Kongsberg multibeam vendor format
0180_20101121_155627_RV_Revelle.all.mb58.gz 45.90MB Kongsberg multibeam vendor format
0181_20101121_175620_RV_Revelle.all.mb58.gz 56.34MB Kongsberg multibeam vendor format
0182_20101121_195629_RV_Revelle.all.mb58.gz 58.99MB Kongsberg multibeam vendor format
0183_20101121_215626_RV_Revelle.all.mb58.gz 89.49MB Kongsberg multibeam vendor format
0184_20101121_235621_RV_Revelle.all.mb58.gz 92.02MB Kongsberg multibeam vendor format
0185_20101122_015623_RV_Revelle.all.mb58.gz 92.29MB Kongsberg multibeam vendor format
0186_20101122_035624_RV_Revelle.all.mb58.gz 92.60MB Kongsberg multibeam vendor format
0187_20101122_055621_RV_Revelle.all.mb58.gz 90.17MB Kongsberg multibeam vendor format
0188_20101122_075622_RV_Revelle.all.mb58.gz 91.19MB Kongsberg multibeam vendor format
0189_20101122_095623_RV_Revelle.all.mb58.gz 89.16MB Kongsberg multibeam vendor format
0190_20101122_115621_RV_Revelle.all.mb58.gz 58.88MB Kongsberg multibeam vendor format
0191_20101122_135624_RV_Revelle.all.mb58.gz 79.56MB Kongsberg multibeam vendor format
0192_20101122_155620_RV_Revelle.all.mb58.gz 70.14MB Kongsberg multibeam vendor format
0193_20101122_175626_RV_Revelle.all.mb58.gz 65.61MB Kongsberg multibeam vendor format
0194_20101122_195625_RV_Revelle.all.mb58.gz 64.81MB Kongsberg multibeam vendor format
0195_20101122_215632_RV_Revelle.all.mb58.gz 72.97MB Kongsberg multibeam vendor format
0196_20101122_235624_RV_Revelle.all.mb58.gz 81.22MB Kongsberg multibeam vendor format
0197_20101123_015620_RV_Revelle.all.mb58.gz 81.52MB Kongsberg multibeam vendor format
0198_20101123_035622_RV_Revelle.all.mb58.gz 81.87MB Kongsberg multibeam vendor format
0199_20101123_055623_RV_Revelle.all.mb58.gz 79.27MB Kongsberg multibeam vendor format
0200_20101123_075621_RV_Revelle.all.mb58.gz 66.77MB Kongsberg multibeam vendor format
0201_20101123_094737_RV_Revelle.all.mb58.gz 23.92MB Kongsberg multibeam vendor format
0202_20101123_103443_RV_Revelle.all.mb58.gz 3.6KB Kongsberg multibeam vendor format
0203_20101123_103503_RV_Revelle.all.mb58.gz 7.8KB Kongsberg multibeam vendor format
0204_20101123_104302_RV_Revelle.all.mb58.gz 59.91MB Kongsberg multibeam vendor format
0205_20101123_124305_RV_Revelle.all.mb58.gz 19.59MB Kongsberg multibeam vendor format

Full Resolution Bathymetry (processed): 1

Files File Size Description
rr1016.b93.mb164.gz 943.84MB NGDC binary hydrographic sounding format

Metadata Files: 1

Files File Size Description
RR1016_Multibeam.xml NGDC created ISO metadata

Ancillary Files: 1

Files File Size Description
xbt.tar.gz 0.76MB Expendable Bathythermograph (XBT) data